Weather History for PANT - April, 2013

Change the Weather History Date:

Monday, April 29, 2013

  Actual Average Record
Temperature  
Mean Temperature 42 °F 47 °F  
Max Temperature 47 °F 53 °F 82 °F (1976)
Min Temperature 36 °F 41 °F 30 °F (1972)
Degree Days  
Heating Degree Days 23 18  
Month to date heating degree days 623 605  
Since 1 July heating degree days 5961 5927  
Cooling Degree Days 0    
Month to date cooling degree days 0  
Year to date cooling degree days 0  
Moisture  
Dew Point 28 °F    
Average Humidity 0    
Maximum Humidity 0    
Minimum Humidity 0    
Precipitation  
Precipitation T in 0.20 in 1.72 in (2014)
Month to date precipitation 6.55 6.58  
Year to date precipitation 32.47 32.67  
Snow  
Snow 0.00 in 0.00 in T in (2006)
Month to date snowfall T 1.4  
Since 1 July snowfall 12.8 34.8  
Snow Depth 0.00 in    
Sea Level Pressure  
Sea Level Pressure 30.06 in    
Wind  
Wind Speed 8 mph (NW)    
Max Wind Speed 18 mph    
Max Gust Speed 26 mph    
Visibility 10 miles    
Events Rain    
T = Trace of Precipitation, MM = Missing Value Source: NWS Daily Summary

Daily Weather History Graph

Daily Weather History Graph

Search for Another Location

Airport or City:

Trip Planner

Search our weather history database for the weather conditions in past years. The results will help you decide how hot, cold, wet, or windy it might be!

Date:

Astronomy

Apr. 29, 2013 Rise Set
Actual Time 5:09 AM AKDT 8:18 PM AKDT
Civil Twilight 4:27 AM AKDT 9:01 PM AKDT
Nautical Twilight 3:30 AM AKDT 9:59 PM AKDT
Astronomical Twilight 2:10 AM AKDT 11:21 PM AKDT
Moon 12:12 AM AKDT (4/29) 8:20 AM AKDT (4/29)
Length of Visible Light 16h 34m
Length of Day
15h 09m
Waning Gibbous, 79% of the Moon is Illuminated
Apr 29
Waning Gibbous
May 2
Last Quarter
May 9
New
May 17
First Quarter
May 24
Full

Hourly Weather History & Observations

Time (AKDT) Temp. Windchill Dew Point Humidity Pressure Visibility Wind Dir Wind Speed Gust Speed Precip Events Conditions
12:53 AM 37.9 °F 32.7 °F 28.0 °F 68% 29.86 in 10.0 mi West 6.9 mph - N/A   Clear
1:53 AM 39.0 °F 34.8 °F 28.9 °F 67% 29.88 in 10.0 mi West 5.8 mph - N/A   Overcast
2:53 AM 37.9 °F 32.1 °F 28.9 °F 70% 29.89 in 10.0 mi West 8.1 mph - N/A   Mostly Cloudy
3:53 AM 37.9 °F 34.4 °F 30.9 °F 76% 29.90 in 10.0 mi West 4.6 mph - N/A   Mostly Cloudy
4:53 AM 39.0 °F 34.0 °F 30.0 °F 70% 29.91 in 10.0 mi West 6.9 mph - N/A   Overcast
5:53 AM 37.0 °F 29.3 °F 34.0 °F 89% 29.94 in 10.0 mi NW 11.5 mph 18.4 mph 0.00 in Rain Light Rain
6:35 AM 37.4 °F 31.4 °F 33.8 °F 87% 29.95 in 10.0 mi NW 8.1 mph - 0.00 in   Overcast
6:48 AM 37.4 °F 31.4 °F 32.0 °F 81% 29.95 in 10.0 mi NW 8.1 mph - 0.00 in   Mostly Cloudy
6:53 AM 37.0 °F 30.4 °F 32.0 °F 82% 29.96 in 10.0 mi NW 9.2 mph - 0.00 in   Scattered Clouds
7:53 AM 37.0 °F 29.8 °F 30.9 °F 79% 29.99 in 10.0 mi NW 10.4 mph 17.3 mph 0.00 in   Mostly Cloudy
8:53 AM 39.0 °F 32.3 °F 28.9 °F 67% 30.02 in 10.0 mi NNW 10.4 mph - N/A   Scattered Clouds
9:53 AM 42.1 °F 36.6 °F 30.0 °F 62% 30.04 in 10.0 mi NNW 9.2 mph - N/A   Overcast
10:53 AM 42.1 °F 35.7 °F 28.9 °F 60% 30.06 in 10.0 mi North 11.5 mph 19.6 mph N/A   Scattered Clouds
11:53 AM 43.0 °F 37.2 °F 27.0 °F 53% 30.07 in 10.0 mi NNW 10.4 mph 18.4 mph N/A   Mostly Cloudy
12:53 PM 45.0 °F 40.1 °F 26.1 °F 48% 30.09 in 10.0 mi North 9.2 mph 18.4 mph N/A   Scattered Clouds
1:53 PM 45.0 °F 38.9 °F 25.0 °F 46% 30.11 in 10.0 mi NNW 12.7 mph 20.7 mph N/A   Partly Cloudy
2:53 PM 46.0 °F 39.9 °F 25.0 °F 44% 30.13 in 10.0 mi NNW 13.8 mph 20.7 mph N/A   Scattered Clouds
3:53 PM 44.1 °F 37.4 °F 25.0 °F 47% 30.15 in 10.0 mi NNW 13.8 mph 24.2 mph N/A   Partly Cloudy
4:53 PM 44.1 °F 38.6 °F 25.0 °F 47% 30.16 in 10.0 mi NW 10.4 mph 18.4 mph N/A   Clear
5:53 PM 43.0 °F 36.8 °F 26.1 °F 51% 30.17 in 10.0 mi NW 11.5 mph - N/A   Clear
6:53 PM 41.0 °F 35.2 °F 26.1 °F 55% 30.19 in 10.0 mi NNW 9.2 mph - N/A   Scattered Clouds
7:53 PM 39.9 °F 33.9 °F 26.1 °F 58% 30.21 in 10.0 mi NW 9.2 mph - N/A   Overcast
8:53 PM 39.9 °F 35.1 °F 28.0 °F 63% 30.22 in 10.0 mi NNW 6.9 mph - N/A   Overcast
9:53 PM 39.9 °F 35.8 °F 27.0 °F 60% 30.24 in 10.0 mi NNW 5.8 mph - N/A   Overcast
10:53 PM 39.0 °F 34.8 °F 27.0 °F 62% 30.25 in 10.0 mi NW 5.8 mph - N/A   Scattered Clouds
11:53 PM 39.0 °F 34.0 °F 28.0 °F 65% 30.27 in 10.0 mi NW 6.9 mph - N/A   Overcast